Theta_e
316 318 319 320 320 318 318 317 312 310 312 316 317 320 328 329 328 326 326 324 321 318 316 316 317 317 318 320 319 321 323 323 324 325 324 324 322 321 322 321 321 321 321 321 322 321 320 321 321 320 322 322 321 322 322 321 322 320 320 322 323 322 320 314 312 317 322 324 324 325 326 326 324 323 324 323 321 322 320 319 320 317 316 318 315 322 339
317 319 320 320 319 318 317 317 313 310 311 313 314 322 325 326 326 324 325 324 320 319 318 317 318 319 319 320 320 321 322 322 324 325 324 323 322 321 322 321 321 320 320 321 322 321 319 319 322 322 322 323 322 322 322 321 320 320 323 325 321 318 319 315 312 314 316 318 319 321 324 324 322 321 323 325 325 327 326 323 323 320 317 318 316 323 339
318 319 320 320 318 317 317 316 314 311 311 312 315 322 324 324 327 326 323 323 321 320 319 318 319 320 320 321 321 321 323 323 324 324 324 324 323 322 321 321 321 321 320 321 321 322 319 318 322 323 321 322 322 321 322 320 320 324 328 328 322 319 321 319 315 312 313 315 316 317 320 322 323 323 324 326 326 326 324 321 320 320 319 320 319 326 341
318 319 320 320 318 317 317 317 315 312 311 311 314 320 323 325 329 328 323 323 321 321 321 320 320 322 323 324 324 322 323 323 323 323 323 323 323 323 322 322 321 321 320 321 321 322 321 320 322 323 323 323 321 322 322 319 323 330 330 326 323 322 322 320 319 316 316 316 319 324 325 320 318 321 322 324 326 327 326 319 318 321 320 320 327 333 337
318 319 319 319 318 316 316 317 315 313 311 311 314 320 324 326 330 328 325 325 323 322 322 320 320 321 323 325 326 324 324 323 322 322 322 322 323 323 323 322 321 321 320 320 320 321 322 322 322 322 323 323 322 323 321 320 330 336 327 321 322 320 317 319 321 318 319 321 322 324 324 319 317 319 319 322 325 326 324 318 321 325 320 321 335 339 332
317 319 319 318 318 316 316 317 316 314 312 311 315 323 326 329 330 327 326 327 326 325 324 321 320 320 321 324 325 324 324 323 323 322 321 321 322 322 323 323 321 321 320 319 319 321 321 321 322 322 322 323 322 322 321 322 330 332 321 319 323 319 315 318 320 319 320 322 322 322 322 319 319 318 317 321 322 322 321 320 324 327 322 325 337 339 337
317 318 318 318 318 316 317 317 316 314 312 313 317 322 325 328 328 326 327 327 327 328 327 325 325 324 323 323 323 322 324 324 323 323 322 321 322 322 322 322 321 321 321 321 322 322 319 318 323 324 323 323 323 323 323 321 324 325 320 322 324 320 317 322 322 320 321 322 323 322 320 319 318 318 319 321 322 322 322 323 327 330 328 334 340 340 344
316 317 317 318 317 317 317 317 317 315 313 316 321 323 326 328 327 326 326 326 327 326 326 327 327 328 328 327 325 323 323 324 324 323 321 322 323 322 322 323 322 322 321 321 322 324 322 321 324 324 323 323 324 323 324 323 323 324 323 324 324 319 318 323 323 318 318 321 323 321 320 318 317 318 321 322 322 322 322 324 328 330 332 341 343 339 344
316 317 317 318 317 317 317 317 317 315 313 319 325 326 327 328 326 326 326 326 327 326 325 326 326 328 328 327 327 326 325 325 324 323 322 323 324 323 322 322 322 322 323 322 322 322 323 324 324 324 323 324 324 324 324 324 324 324 323 324 325 322 319 321 321 313 312 318 320 319 320 320 316 315 319 321 321 320 321 327 331 330 332 338 337 333 339
315 316 317 317 317 317 316 316 316 314 313 319 326 326 328 329 327 327 327 328 328 326 326 326 325 326 327 327 328 327 326 326 324 324 324 322 323 323 323 323 321 322 323 322 322 322 322 323 323 323 324 323 323 323 323 323 324 324 324 324 324 324 320 318 318 313 311 316 319 318 318 315 313 317 321 321 323 324 324 329 333 333 332 333 330 332 341
314 315 316 316 316 316 315 315 316 314 313 317 321 324 327 328 326 325 327 328 329 327 326 327 325 325 326 326 327 326 326 326 325 325 325 323 323 323 323 323 323 322 322 322 323 323 322 323 323 322 323 322 322 323 323 323 323 323 324 324 323 324 321 319 319 314 312 316 319 319 316 312 315 324 328 326 326 327 326 327 331 334 334 332 333 337 343
313 314 315 316 316 316 316 315 315 314 312 312 317 321 326 327 325 325 327 329 329 328 327 328 327 325 324 325 326 327 326 326 326 326 325 324 325 324 324 324 324 324 324 323 323 323 322 322 323 323 322 322 322 323 322 322 323 323 322 322 323 323 321 320 319 315 313 317 317 314 312 316 324 330 330 328 327 327 328 328 332 334 335 334 336 338 341
312 314 315 316 316 316 316 316 315 315 312 310 314 320 324 325 325 325 327 329 329 328 327 328 327 326 324 324 325 327 327 327 327 326 326 326 326 326 326 325 325 324 323 322 323 323 323 322 322 323 322 322 323 323 322 322 322 323 322 321 322 322 322 320 318 316 315 314 313 313 316 324 329 329 328 327 327 327 324 325 331 335 335 336 338 339 340
311 313 314 316 316 316 317 316 316 315 313 310 313 317 321 324 325 326 328 330 330 328 327 328 328 326 326 324 323 325 327 328 327 327 326 327 327 326 326 325 325 323 322 323 323 323 323 322 321 320 321 321 320 320 322 323 322 322 322 322 322 322 321 320 316 316 316 312 310 314 316 318 322 326 329 327 327 328 325 325 332 338 335 335 338 340 340
310 312 313 314 316 316 316 316 316 316 313 311 313 317 321 324 325 324 326 328 329 329 327 328 328 326 326 326 322 323 325 326 326 326 326 326 326 326 325 324 324 324 322 323 324 324 323 320 316 314 315 316 316 317 321 323 322 322 322 322 323 322 323 322 317 316 316 312 311 314 313 315 322 329 331 329 326 329 330 329 333 337 334 334 337 340 340
308 310 312 313 315 316 316 316 316 316 314 311 313 318 322 323 323 323 325 326 328 329 327 326 326 325 326 327 324 323 323 323 324 325 325 326 326 324 324 323 324 324 323 323 324 326 324 319 315 313 314 316 316 317 320 320 321 322 322 323 322 322 324 324 318 315 315 313 312 312 314 321 330 332 330 328 327 329 328 326 329 336 336 333 334 338 340
306 307 310 312 314 315 316 316 316 315 314 312 313 316 320 322 322 322 324 326 327 327 325 324 325 325 326 327 327 325 324 323 323 323 325 326 325 324 323 323 323 323 323 323 325 324 322 319 316 314 317 323 322 318 320 320 318 320 322 323 322 323 324 322 315 313 314 314 313 312 316 326 333 329 326 327 328 329 326 322 327 336 336 333 334 337 339
307 307 308 310 313 314 315 315 316 315 314 313 312 314 318 321 321 321 323 325 326 325 325 324 324 325 325 325 325 325 325 324 323 324 324 325 326 325 323 323 323 323 323 324 325 323 320 320 318 315 319 328 327 320 320 321 318 319 323 323 322 322 322 320 316 313 312 313 312 312 318 329 331 326 326 328 327 326 323 324 332 337 334 334 335 336 337
308 307 308 309 311 313 315 315 315 315 314 312 312 315 319 321 321 321 322 325 326 326 325 324 324 323 323 323 323 324 324 324 325 325 324 325 327 326 323 325 325 324 323 324 324 323 319 319 321 321 321 325 327 322 321 323 322 322 323 321 319 320 320 319 316 314 313 313 312 311 318 330 331 325 327 327 323 323 326 332 337 335 334 335 336 335 336
308 308 308 308 310 312 314 315 315 315 314 313 312 314 318 320 321 321 321 323 325 325 324 322 322 323 322 322 322 323 324 324 324 324 323 324 327 326 325 326 326 325 324 323 322 323 320 319 323 323 320 323 327 325 323 324 326 326 324 322 321 321 318 315 315 316 315 313 311 312 319 330 330 326 329 329 325 327 334 337 334 332 334 335 334 335 336
308 308 308 308 309 311 313 315 315 315 314 313 312 313 317 320 321 321 320 321 322 323 323 321 322 323 321 321 321 321 323 324 324 325 323 323 327 327 326 327 328 328 328 325 322 322 321 320 323 323 321 325 329 325 322 322 324 326 327 326 325 324 320 317 319 320 315 312 314 320 325 329 327 326 331 332 331 333 335 333 332 332 333 334 335 334 333
308 308 308 307 308 310 312 314 315 315 315 313 312 313 317 321 322 321 320 320 320 322 323 322 323 322 321 321 320 318 319 321 322 324 324 323 326 327 327 328 328 328 328 329 329 327 324 324 326 323 322 328 329 326 324 322 320 324 327 326 324 326 328 326 326 326 321 321 326 329 330 329 327 329 332 332 331 331 331 331 333 333 334 336 336 335 334
307 308 308 307 307 309 311 314 314 314 315 313 312 314 317 320 320 319 319 320 321 322 323 324 324 324 323 323 322 320 318 318 319 322 323 322 324 326 326 327 327 326 327 332 334 332 330 331 331 325 324 329 329 324 325 324 323 325 328 327 325 327 330 331 330 327 325 329 332 331 329 329 329 329 331 331 329 329 329 331 333 332 332 335 336 335 336
306 307 308 308 307 308 310 313 314 314 315 313 312 313 315 317 318 318 319 321 322 323 325 325 324 324 323 322 323 322 320 318 317 319 320 321 322 323 324 326 325 326 330 332 333 332 330 331 331 327 326 328 326 323 324 325 326 328 328 326 328 328 326 327 329 326 323 327 331 330 327 327 330 330 330 330 330 329 330 332 333 332 331 333 335 335 336
306 307 308 308 307 307 309 311 313 314 315 313 312 312 314 316 317 317 319 321 322 324 325 326 324 323 322 321 320 321 321 319 318 318 318 320 321 321 322 324 323 324 328 329 330 331 330 330 330 326 324 326 324 324 327 327 328 330 329 326 328 330 326 326 327 326 326 329 332 331 328 327 330 330 330 329 329 330 331 332 333 333 331 331 333 334 335
307 308 308 308 307 307 309 311 313 314 314 313 312 312 314 316 317 317 318 320 321 323 324 325 324 323 322 322 321 320 320 319 319 319 319 320 320 320 320 321 321 322 324 326 327 328 328 329 329 325 326 332 331 327 329 330 328 330 329 327 327 328 326 326 325 325 327 332 333 332 330 329 329 330 330 330 330 331 332 332 331 331 331 331 330 331 332
307 308 308 308 308 308 309 311 312 314 314 313 312 312 313 314 315 317 318 319 321 323 325 325 324 323 323 323 322 322 321 320 319 320 320 321 321 321 321 321 321 321 322 324 327 327 326 328 327 323 326 333 332 328 329 330 329 328 327 326 326 326 326 327 325 322 324 329 333 333 331 329 329 330 330 332 332 331 332 332 331 331 331 330 330 330 331
307 308 308 308 308 308 309 310 311 313 314 313 312 312 313 313 314 316 317 317 319 321 323 323 323 324 323 323 322 321 321 321 320 319 319 320 321 322 322 322 321 321 322 324 327 327 326 326 326 324 324 327 328 328 329 328 326 327 327 327 327 327 327 328 326 324 325 327 331 334 333 330 330 331 332 332 333 332 331 331 331 331 330 329 330 331 331
307 308 308 308 307 308 309 310 311 312 313 313 312 312 313 314 315 315 316 317 317 318 319 321 322 323 324 324 323 322 321 320 320 319 318 318 320 321 322 323 322 321 322 324 326 327 326 326 325 325 325 325 326 327 328 328 327 328 327 327 328 327 327 328 327 327 329 330 331 333 332 329 329 332 332 332 332 331 331 331 331 330 329 329 330 331 332
307 307 307 307 307 307 308 310 312 313 313 313 312 313 315 317 317 316 317 317 317 317 319 321 323 324 324 323 323 323 323 321 319 319 318 317 318 320 322 323 322 322 322 323 325 326 326 326 325 325 325 325 325 326 327 328 330 330 330 330 330 328 328 330 328 328 330 331 332 332 330 329 330 332 332 332 332 331 330 331 331 330 330 329 330 332 333
307 307 307 307 306 307 308 311 313 313 313 312 313 315 318 320 319 317 317 316 317 317 319 321 323 323 323 323 324 323 323 322 319 318 319 319 318 319 321 322 323 323 323 323 325 326 326 327 327 325 326 327 326 326 326 326 328 331 332 331 331 329 329 329 328 328 331 332 331 329 327 329 333 334 332 331 331 330 330 331 331 330 330 330 330 331 331
307 307 307 307 307 307 309 311 313 313 312 312 313 315 317 317 317 316 316 316 317 317 318 321 323 324 323 324 323 323 323 321 319 318 319 320 320 320 321 321 322 323 323 324 325 326 327 327 327 325 327 329 328 326 326 325 327 330 331 330 331 330 329 328 329 329 330 331 332 331 329 329 333 335 332 330 329 330 331 331 330 330 330 330 330 330 330
307 308 308 307 307 308 309 311 313 313 312 312 313 314 314 314 314 315 315 316 317 318 319 321 323 323 324 323 322 322 322 320 318 318 319 320 321 320 321 323 323 324 324 324 325 326 326 326 325 325 328 331 328 326 327 327 327 329 330 329 329 330 329 328 329 330 330 331 333 333 331 331 333 333 331 330 330 330 331 331 329 329 329 330 330 330 330
308 309 309 309 308 308 309 311 312 312 312 312 313 313 314 313 313 313 314 316 318 318 319 321 322 323 324 323 322 322 321 319 319 320 320 321 321 321 322 323 323 324 324 323 324 326 326 326 325 325 326 328 327 326 328 327 327 330 331 330 329 330 329 329 330 330 330 331 333 333 333 333 334 333 332 330 329 329 330 330 329 328 328 329 329 330 331
310 311 310 310 311 310 311 311 312 311 311 312 313 314 314 314 313 313 313 316 318 319 320 321 321 322 324 323 322 322 320 319 320 321 321 322 322 322 323 324 324 324 325 325 325 326 326 326 325 325 325 327 328 328 328 326 327 330 331 330 330 331 331 330 330 330 330 332 335 335 333 332 332 332 332 330 329 329 329 329 328 328 328 328 328 330 331
312 312 312 312 311 311 311 311 311 311 312 313 314 314 314 314 314 313 314 315 317 319 321 322 321 323 323 322 321 322 322 321 322 322 322 323 323 322 323 325 325 324 324 326 326 326 327 327 326 326 326 328 329 330 330 330 332 333 332 330 332 333 331 329 329 329 329 331 334 336 333 330 331 334 333 331 330 330 330 329 328 328 328 328 329 330 330
313 312 311 311 311 310 311 311 311 311 313 314 314 314 314 314 314 315 315 316 316 317 318 320 322 324 323 322 322 322 323 323 323 322 322 323 325 325 324 325 326 325 325 326 327 327 329 330 328 326 326 327 329 333 335 334 334 335 335 336 337 337 334 330 329 329 329 329 331 334 332 330 332 335 333 331 330 330 330 329 329 328 327 328 329 329 328
311 311 310 311 311 312 312 313 312 312 313 314 315 314 314 314 315 316 316 316 317 317 317 318 320 322 322 322 324 323 322 324 324 324 324 325 326 327 325 324 326 326 326 327 327 328 331 331 329 327 328 329 330 334 336 334 333 334 335 336 336 336 334 331 329 330 330 329 330 333 332 332 334 335 333 331 332 331 330 330 330 328 327 328 328 328 328
310 310 311 312 312 314 316 315 314 313 313 314 315 316 315 315 316 318 318 317 318 319 318 318 319 321 320 321 322 321 321 323 324 326 327 327 328 329 328 326 326 328 329 329 328 327 329 330 329 328 329 330 331 333 334 335 335 335 334 333 333 334 334 332 331 331 333 333 334 335 334 333 335 336 335 333 333 332 331 331 331 329 329 329 328 327 328
310 312 313 313 314 315 316 315 314 314 315 315 315 317 318 317 318 320 320 319 319 320 320 319 320 320 319 320 320 320 321 322 323 326 329 329 328 329 330 328 326 327 329 330 329 327 327 329 330 329 329 329 332 333 334 333 334 334 334 332 333 334 334 333 333 334 336 337 337 336 333 330 332 334 334 333 333 333 332 331 331 330 330 330 329 328 328
312 313 314 315 315 315 315 314 314 315 316 316 317 318 319 319 319 320 321 321 321 320 320 321 321 321 320 319 319 321 323 323 323 327 330 329 326 327 330 329 328 328 329 329 328 326 326 328 329 329 329 329 332 334 334 332 332 334 334 333 333 333 333 332 332 334 335 335 335 334 332 329 329 331 331 331 332 334 333 332 331 330 329 329 329 328 327
313 314 314 315 316 316 315 315 316 317 317 317 318 319 319 320 321 321 321 322 322 320 320 321 321 321 322 320 319 320 323 323 324 326 328 328 327 327 329 329 328 327 328 329 329 329 330 329 328 328 330 333 334 335 333 332 332 333 332 331 331 331 331 330 330 331 332 332 333 334 332 329 329 330 332 333 333 334 334 333 332 330 329 328 328 328 327
313 313 313 314 317 317 316 316 317 318 317 318 319 319 319 320 321 321 321 321 320 320 321 321 320 320 322 321 321 321 321 323 326 327 327 328 328 328 328 329 328 327 327 328 329 330 330 329 327 327 330 333 334 334 333 331 332 331 331 330 331 332 332 331 330 330 331 331 332 331 330 329 328 329 330 332 332 332 332 333 332 330 330 329 328 327 327
313 313 314 315 317 318 317 318 318 318 318 318 319 320 321 320 320 321 322 322 320 320 322 322 320 321 323 322 321 321 322 322 324 327 327 327 327 327 327 328 329 327 327 327 328 327 326 326 327 329 330 330 331 333 334 332 332 332 332 331 331 332 333 332 332 332 332 331 329 328 327 329 330 328 328 330 332 331 332 333 331 330 330 329 328 328 328
314 314 315 316 317 316 316 317 317 317 318 319 319 319 320 319 319 320 321 322 320 319 321 322 320 321 322 321 320 321 322 321 322 325 326 327 327 328 328 328 328 327 327 328 327 326 325 325 326 330 332 332 331 333 335 334 333 333 332 330 329 330 332 332 332 332 331 330 329 328 330 333 334 332 330 331 332 331 331 333 332 330 330 330 329 328 328
314 314 315 317 317 316 316 317 316 317 318 319 319 318 318 320 321 321 321 322 322 321 320 321 322 322 322 322 321 321 322 321 321 323 325 326 327 328 328 327 327 327 327 327 326 326 325 324 325 330 333 334 332 332 333 333 332 331 331 329 329 329 330 330 331 331 330 330 332 333 333 332 332 332 333 333 332 330 330 331 331 330 331 331 330 329 329
315 314 315 316 317 316 316 317 317 317 318 319 320 319 319 320 322 322 320 322 324 324 322 322 324 324 325 324 323 321 320 321 322 323 323 323 325 326 326 326 327 326 326 327 327 325 325 326 327 330 333 332 331 331 331 330 330 331 331 330 330 330 330 330 331 331 329 329 333 334 332 330 330 331 332 332 332 330 331 331 331 330 330 330 330 330 329
315 315 316 317 317 316 316 317 317 316 317 319 319 318 319 322 326 326 323 322 324 324 324 323 323 324 325 324 323 321 320 321 321 322 323 323 324 325 325 325 326 325 325 325 325 324 326 328 330 332 331 329 329 329 329 327 327 329 329 328 329 332 333 332 331 330 329 330 333 334 332 332 332 331 331 332 333 332 332 331 331 330 330 330 330 330 329
314 315 316 317 317 317 318 319 317 317 321 323 322 320 320 323 327 327 325 322 323 325 325 323 322 323 324 323 322 321 321 321 321 321 323 324 324 324 324 324 324 324 323 323 324 324 327 329 330 331 331 329 328 329 328 327 327 328 327 326 328 331 333 333 333 331 332 334 334 333 332 332 332 331 331 332 333 333 332 331 330 330 330 330 330 330 329
315 315 316 317 318 318 320 320 318 319 325 328 325 322 320 321 324 326 325 324 324 325 325 322 322 323 323 323 322 321 321 321 321 321 323 324 324 323 323 323 323 322 321 322 324 326 326 327 329 330 330 330 330 330 329 328 329 329 328 327 327 328 330 331 330 331 333 335 332 330 331 332 331 330 330 331 332 332 332 331 331 331 330 330 330 330 329
314 315 316 317 317 318 319 319 319 320 323 324 323 322 321 322 324 325 325 324 324 325 325 324 323 322 321 321 321 320 321 321 321 321 322 323 323 323 323 323 323 322 321 321 324 326 327 327 329 330 331 332 332 332 331 330 330 331 330 330 329 330 331 330 327 328 333 334 331 329 329 329 329 329 329 331 331 332 333 332 331 331 331 331 331 329 329
314 315 316 316 316 317 318 319 320 321 320 320 321 322 321 321 323 324 324 323 323 325 325 325 324 322 320 320 320 320 321 322 323 323 322 322 321 322 323 323 321 321 322 322 323 325 327 328 329 330 332 332 332 332 332 332 332 332 332 332 332 333 334 332 330 330 333 333 331 329 328 328 329 329 331 332 333 334 334 332 331 331 331 331 330 329 329
Wind_Speed
21 22 21 21 24 28 30 30 30 31 30 26 23 17 7 6 3 7 13 14 14 9 6 7 8 8 9 12 14 14 11 10 11 8 6 7 8 8 8 8 7 7 6 6 8 6 3 5 7 5 1 7 10 8 8 4 2 5 5 5 2 1 3 5 7 8 7 4 3 1 2 4 5 6 6 5 4 4 4 4 5 6 7 8 6 1 3
20 20 20 20 23 26 28 29 28 26 24 23 19 13 5 6 7 3 10 13 13 8 7 8 8 9 11 14 14 15 13 8 8 11 8 7 7 9 8 7 7 8 7 8 8 3 3 6 8 6 1 9 10 5 6 4 4 4 3 6 3 2 2 3 5 6 6 8 6 4 3 1 4 7 7 3 2 7 6 4 4 5 7 8 7 1 3
18 19 19 18 21 25 26 27 27 23 21 20 14 8 5 6 8 4 8 11 10 8 7 8 8 9 12 13 14 14 11 6 7 12 12 9 8 9 8 8 9 9 7 6 8 6 5 6 7 6 3 4 8 6 5 2 3 5 11 8 4 5 3 2 4 6 4 2 1 1 1 2 3 4 4 1 1 5 5 3 4 4 5 6 5 2 4
18 17 17 17 20 24 25 25 26 23 19 19 13 8 6 4 6 5 6 9 7 7 8 10 10 9 9 9 11 13 12 8 9 12 13 12 10 10 9 9 10 10 7 6 8 9 7 6 6 6 6 5 5 9 6 3 2 11 13 8 4 5 5 5 6 8 7 4 4 5 4 6 6 6 7 5 3 3 2 3 4 3 4 3 3 4 2
18 16 16 16 19 23 24 24 25 22 18 17 12 7 6 4 6 6 2 4 6 6 8 10 9 10 10 8 8 11 12 10 9 11 10 11 12 11 10 11 12 11 10 8 8 9 8 8 7 4 4 5 2 11 7 5 7 10 5 5 4 4 6 8 9 9 10 8 9 9 6 8 10 10 10 7 5 4 3 5 5 3 5 2 4 5 3
17 16 15 15 17 22 23 23 23 22 18 15 9 5 5 5 7 5 2 2 5 5 6 9 10 12 12 8 10 13 10 9 9 9 10 11 12 9 9 13 14 10 9 9 8 8 8 10 9 4 2 5 3 9 6 4 10 6 6 6 3 5 7 9 11 12 13 11 10 10 9 8 9 10 9 8 7 6 5 7 7 4 5 2 4 3 3
16 16 15 15 17 20 22 23 22 22 19 12 5 5 5 6 6 6 6 4 7 8 8 8 8 11 11 8 10 12 11 10 11 9 9 10 11 11 11 13 13 11 11 9 8 8 8 9 10 7 6 8 7 6 5 5 9 5 8 6 5 4 5 7 11 12 10 7 6 9 9 9 10 8 7 8 8 7 6 7 5 3 4 3 3 1 1
15 15 15 15 16 18 21 22 22 22 20 11 5 7 6 6 5 7 8 8 8 9 10 9 8 8 8 8 10 11 12 12 12 11 9 9 10 12 13 15 14 14 14 12 10 10 9 8 7 6 7 8 8 6 4 4 8 7 6 5 6 3 3 5 7 10 8 6 9 11 9 9 10 8 7 8 7 8 9 5 3 3 2 5 4 1 2
15 14 14 15 15 16 19 21 22 21 17 10 6 7 9 11 10 8 6 6 7 8 9 8 7 7 7 8 9 9 11 13 11 11 13 13 11 10 12 15 15 14 15 15 14 12 10 11 8 6 8 8 8 7 4 4 6 7 5 5 7 5 4 6 4 5 7 9 12 11 6 7 10 10 10 10 8 8 6 1 3 4 1 5 3 2 2
15 14 14 15 15 16 17 20 22 20 15 10 6 7 11 14 13 10 7 6 7 7 8 8 7 7 6 8 9 10 12 13 11 10 11 13 14 13 12 13 11 12 13 14 15 13 12 12 9 7 8 9 8 8 7 7 7 6 5 5 4 3 4 5 5 6 7 8 9 7 4 6 7 6 7 6 5 4 3 2 2 3 2 1 1 2 4
14 14 14 14 15 16 16 19 21 20 16 11 7 9 12 11 9 8 6 6 7 7 7 8 8 7 7 8 10 11 12 13 12 10 9 10 13 14 13 12 9 9 12 12 13 13 11 9 7 7 9 10 10 10 9 9 9 6 5 6 5 4 4 6 6 6 7 5 3 3 5 5 2 3 6 5 3 2 3 2 1 2 2 2 3 4 5
13 14 14 14 14 15 15 17 19 18 16 12 9 11 12 12 9 7 5 6 8 7 7 8 10 9 7 8 9 10 11 12 13 12 9 10 12 9 9 11 9 8 9 9 10 11 10 8 6 7 9 10 10 11 12 12 10 7 7 8 6 5 6 4 5 5 8 6 2 4 6 2 3 4 4 4 4 3 3 5 3 1 3 3 5 6 6
11 12 12 13 13 14 14 16 18 18 15 13 10 11 12 13 8 5 5 6 7 7 7 10 13 14 11 8 8 9 11 11 12 11 8 10 13 11 9 11 11 9 7 7 10 10 9 8 6 7 8 9 10 10 12 13 10 8 9 7 6 6 5 4 4 5 6 6 5 5 3 5 6 4 2 1 2 3 5 5 2 4 5 3 4 7 7
11 11 12 11 12 13 13 14 17 17 15 13 11 12 13 11 8 5 5 6 7 8 8 8 10 12 12 9 8 8 10 10 9 9 7 8 11 11 11 11 12 10 8 7 9 7 6 6 4 6 6 7 8 9 10 11 10 11 11 9 7 7 6 5 4 5 6 6 6 5 4 5 6 5 5 2 1 1 2 2 2 5 5 3 3 6 8
13 13 13 11 11 12 12 13 15 17 16 12 10 13 13 9 6 6 6 5 6 7 7 7 8 10 12 10 6 5 6 7 7 7 8 9 10 10 11 12 13 13 11 9 5 3 5 6 5 6 7 7 7 7 7 8 8 11 12 9 8 8 5 5 5 5 6 7 6 7 7 4 1 6 6 1 1 1 0 1 1 3 5 4 4 7 9
14 14 14 12 11 12 12 12 14 16 15 12 10 13 12 6 4 7 7 6 5 6 6 6 7 8 8 9 7 5 5 5 5 6 7 9 10 10 10 11 14 15 13 8 3 3 5 7 6 7 7 7 8 6 5 5 6 7 10 9 8 7 6 5 6 7 6 7 6 6 5 1 2 2 2 2 2 1 2 2 2 3 4 4 4 8 10
14 14 15 14 12 11 11 12 13 14 14 11 11 13 11 7 7 7 6 5 6 7 9 10 8 6 5 6 6 5 5 5 5 6 5 5 8 10 9 10 12 13 11 7 3 4 7 7 7 7 5 4 5 5 4 5 6 6 7 7 8 8 6 6 7 7 7 7 6 5 3 3 5 3 1 3 3 1 3 3 2 3 5 4 4 7 10
15 14 14 14 12 11 11 11 12 13 12 10 10 13 12 7 6 6 5 5 6 7 9 10 9 6 5 5 5 5 4 4 4 4 5 4 5 7 7 8 10 10 8 7 6 7 8 8 8 8 4 0 1 3 3 4 6 6 6 6 6 7 7 6 7 8 8 8 7 5 1 5 5 3 1 4 3 1 3 2 3 6 6 5 6 9 9
15 14 13 14 12 10 9 10 11 12 11 10 9 11 10 6 4 5 6 6 5 6 9 11 10 8 7 7 6 6 5 5 4 4 4 4 3 5 6 6 7 6 6 7 8 8 8 8 7 7 4 3 3 4 5 5 5 5 6 7 7 6 6 7 8 8 7 7 8 7 2 2 0 1 6 6 0 2 1 1 4 7 8 8 8 9 8
14 14 14 14 14 11 8 9 10 10 10 9 8 10 11 7 5 6 6 6 6 7 10 11 9 9 9 8 7 7 6 5 4 4 6 3 1 3 6 4 5 5 4 8 10 7 6 8 7 5 5 5 3 3 6 7 6 6 7 7 6 5 6 7 7 7 7 7 8 6 2 1 2 3 7 4 2 2 4 4 4 5 8 10 9 8 8
14 14 13 14 15 12 8 8 9 10 10 8 6 10 12 7 4 4 5 6 6 5 7 9 12 13 13 11 11 12 11 9 7 5 5 4 3 1 5 3 1 3 3 5 8 7 6 7 6 6 7 3 2 2 5 6 7 8 8 7 5 4 5 6 4 4 6 6 4 2 2 3 2 2 4 3 3 5 5 4 3 3 6 8 8 7 8
14 13 13 13 15 13 9 7 8 9 9 7 6 8 10 6 2 3 5 7 9 9 12 18 20 18 17 16 17 17 16 15 13 7 5 5 3 3 5 4 3 3 2 2 5 6 5 5 5 6 7 4 4 5 5 5 5 7 8 7 5 3 2 2 2 4 3 1 3 1 2 3 4 4 6 7 6 5 4 3 2 3 6 8 8 8 9
14 13 13 13 14 14 10 7 8 9 9 7 5 7 10 8 6 7 8 9 11 12 18 22 19 16 18 21 22 21 17 17 18 12 7 5 4 4 5 5 5 6 2 2 3 4 4 4 4 5 5 4 4 5 7 6 5 4 5 7 5 3 4 3 3 3 2 3 6 3 2 2 4 5 6 6 5 5 5 4 2 3 6 8 8 9 10
14 14 14 14 13 13 12 9 8 9 9 8 6 7 10 11 10 10 9 8 7 7 11 13 10 9 14 14 12 13 13 14 15 15 12 8 5 5 5 4 4 4 2 2 3 4 4 4 4 5 4 3 5 5 5 6 4 2 4 5 3 4 7 7 4 4 3 2 2 1 3 4 4 5 5 4 4 4 4 4 4 4 5 7 10 11 12
15 15 15 14 13 13 13 10 8 9 9 8 7 8 9 10 8 7 7 7 5 5 6 6 7 13 16 9 5 8 12 12 12 13 14 13 10 8 8 7 8 7 4 4 5 4 3 4 4 5 4 2 4 4 2 3 2 0 2 4 2 3 6 7 7 7 4 3 1 2 3 3 5 5 3 4 4 4 4 5 6 4 5 7 9 10 12
16 16 15 14 12 11 12 10 8 9 9 8 7 8 9 10 8 6 7 7 6 5 6 6 9 16 16 9 6 8 7 8 10 12 14 15 15 14 15 13 12 10 7 5 6 5 4 4 4 6 4 1 1 2 1 1 1 2 4 3 1 1 4 4 4 5 3 5 4 2 2 2 5 6 5 5 5 5 6 6 7 6 6 7 7 8 10
16 15 14 13 11 11 11 10 8 8 9 9 9 8 10 11 10 8 8 7 5 4 5 5 7 12 15 16 15 12 8 11 13 12 12 15 15 16 16 13 9 8 7 6 6 5 5 5 6 7 5 2 2 3 3 3 4 6 6 4 3 5 6 4 3 5 5 5 7 6 4 2 2 4 6 8 7 7 7 7 7 8 7 6 7 8 9
15 14 13 12 12 11 10 10 9 8 9 10 8 9 11 13 13 11 10 8 6 5 5 6 7 11 16 17 17 15 12 14 15 14 14 15 15 16 15 11 8 7 7 6 6 6 6 6 7 7 5 4 4 4 4 6 7 7 6 6 6 6 6 4 4 5 2 3 7 8 5 1 0 2 5 9 8 7 8 7 7 8 8 7 7 8 9
15 14 12 12 12 11 10 10 9 9 9 8 7 8 12 15 16 14 12 10 8 6 6 7 8 9 10 11 13 13 12 11 12 15 15 15 15 15 13 10 9 8 7 7 7 6 6 6 6 6 5 5 4 2 2 4 6 5 5 6 6 6 5 6 8 6 2 5 7 6 5 3 4 5 7 9 8 7 8 8 8 8 8 7 7 8 8
14 13 12 12 12 12 11 10 10 11 10 7 6 6 8 9 11 13 12 11 8 5 5 6 7 7 8 10 13 16 16 14 11 13 14 14 13 13 12 10 8 7 7 7 6 6 6 5 6 7 7 6 6 4 2 3 5 3 1 1 2 4 6 6 7 4 2 4 4 5 5 4 4 5 7 9 8 8 8 8 9 9 8 8 8 7 9
13 12 13 12 11 10 10 9 10 13 11 8 6 4 3 2 5 6 8 9 7 5 4 5 7 7 8 10 13 16 18 18 15 13 13 12 11 12 13 11 8 7 8 7 5 6 6 5 5 8 6 4 4 5 5 7 7 4 2 1 1 2 4 4 5 2 3 5 1 6 6 6 6 5 8 9 9 9 9 9 9 10 9 9 9 8 9
12 11 11 10 10 10 9 8 11 14 13 11 9 7 4 3 1 5 7 7 6 5 4 5 6 6 5 6 9 11 14 15 12 10 9 9 9 10 11 10 8 7 8 7 5 5 6 5 6 8 5 1 1 5 7 8 6 5 7 6 4 3 4 4 4 4 3 5 4 7 8 8 9 8 9 10 10 10 10 10 11 11 10 10 10 9 10
10 10 9 9 9 9 8 8 10 12 11 11 13 14 12 9 3 6 8 6 5 6 5 4 6 6 4 6 7 5 7 8 7 7 7 7 7 7 7 7 7 7 7 7 5 5 5 6 7 8 5 4 3 6 7 7 6 7 10 8 6 5 6 5 3 4 5 3 4 7 7 6 8 7 8 10 10 11 11 12 12 12 11 9 9 9 9
10 10 9 9 10 10 10 10 11 11 9 10 12 13 14 12 7 7 8 7 5 6 5 4 5 6 6 7 7 5 6 6 5 5 5 5 6 6 6 6 6 6 7 7 5 4 6 6 6 7 6 6 5 6 7 8 8 7 9 7 6 6 4 3 3 4 4 3 5 7 4 5 8 9 9 10 10 11 13 13 12 12 11 9 9 9 8
9 8 8 9 9 9 10 11 11 9 8 9 10 9 10 11 9 8 9 7 4 4 4 5 6 6 6 7 6 4 5 6 5 4 4 5 6 6 5 5 6 6 6 6 5 6 6 6 6 7 7 6 6 6 7 9 10 8 10 9 7 6 5 4 4 4 4 3 4 5 4 7 11 11 10 11 11 11 12 12 12 11 10 9 10 10 9
4 6 8 8 8 9 9 9 10 8 6 7 8 6 4 6 6 7 9 9 7 5 3 4 6 7 6 7 4 1 2 5 5 4 4 4 5 5 5 5 6 6 4 4 6 7 6 4 5 7 7 6 7 6 4 4 4 5 9 9 7 6 5 6 6 6 5 2 2 6 7 9 11 9 8 10 11 11 11 11 12 12 10 9 10 10 9
7 10 11 11 10 7 5 6 9 9 8 7 5 4 6 6 5 6 7 8 8 7 4 4 6 7 6 6 4 1 0 4 5 4 4 5 4 4 4 5 5 5 5 6 7 6 3 1 4 8 8 7 7 5 3 2 1 3 6 6 4 3 3 5 8 9 9 6 6 7 7 7 6 7 9 10 10 11 12 11 11 11 10 9 9 10 10
10 10 10 9 6 3 3 6 9 10 10 9 6 6 6 4 4 4 4 5 6 7 5 5 7 7 6 6 5 2 1 3 3 4 5 5 3 2 4 5 4 4 5 6 5 3 2 2 5 8 8 6 5 5 4 3 2 1 3 4 5 5 6 8 10 11 12 11 11 10 8 7 6 7 9 10 10 11 10 9 9 10 10 9 10 11 11
9 8 6 5 4 2 1 4 8 10 10 9 7 4 3 3 3 3 4 4 5 5 6 7 8 8 7 7 6 5 5 4 3 3 3 2 0 1 4 4 3 2 5 6 3 3 4 5 5 6 7 6 5 5 4 4 3 0 1 3 6 8 9 9 8 9 9 7 6 6 6 6 7 8 9 8 9 10 10 9 9 10 10 10 12 13 12
7 6 5 4 3 2 5 8 11 11 9 6 5 3 2 3 4 3 3 4 5 4 5 6 6 7 8 9 8 6 5 4 3 1 1 2 1 0 3 3 1 2 5 6 3 3 5 6 5 6 8 7 6 6 5 5 6 4 4 7 8 9 9 7 5 5 4 4 1 3 5 6 7 8 9 9 8 10 10 9 10 11 11 11 13 13 12
7 6 3 1 1 5 9 11 10 7 5 3 3 2 2 3 3 2 2 5 5 4 4 5 6 6 8 9 8 5 2 1 1 2 2 1 2 1 2 2 1 2 4 4 2 3 4 6 6 7 6 5 4 6 7 8 8 8 8 9 9 8 9 8 6 5 7 7 4 6 9 12 12 11 12 12 10 9 10 10 11 13 14 14 15 14 13
7 4 4 4 2 5 8 7 5 4 2 1 1 2 3 3 3 2 3 4 4 3 4 6 7 6 6 8 8 6 3 2 2 1 1 1 2 1 0 0 1 4 4 2 1 1 3 4 6 7 5 4 4 5 8 9 8 9 10 9 7 7 8 8 7 6 7 8 8 8 11 15 15 13 12 12 10 8 9 11 13 14 16 17 17 16 15
8 6 5 4 1 3 4 3 3 3 2 2 2 2 3 3 3 3 3 3 3 3 4 5 5 6 5 5 5 5 3 2 1 0 1 2 1 1 1 1 1 3 2 1 2 4 4 5 7 6 4 6 7 7 9 9 8 9 10 9 9 10 9 8 7 6 7 9 10 10 11 14 14 12 10 11 11 10 11 12 14 15 16 19 18 16 17
6 4 3 3 2 2 2 1 1 2 2 3 3 3 4 5 5 4 3 3 4 5 5 4 4 5 5 4 3 4 3 2 2 1 1 1 2 2 2 1 2 2 1 2 5 6 6 6 5 3 3 5 7 8 9 9 9 9 9 10 11 12 10 8 8 7 7 9 11 11 11 10 9 10 11 9 11 11 13 14 16 17 17 19 18 16 18
4 3 2 1 1 1 1 1 1 3 3 4 4 4 4 5 5 4 3 3 4 4 5 5 5 6 5 4 3 4 3 3 3 3 2 1 3 4 2 1 1 2 3 4 5 5 6 6 4 3 4 6 6 7 8 8 8 8 8 9 11 11 10 10 10 8 7 9 10 9 6 2 3 6 11 10 9 8 9 11 16 18 19 19 17 16 18
3 3 3 2 2 2 2 2 3 3 3 4 4 5 5 4 4 3 2 3 4 5 4 4 4 4 3 2 2 3 3 3 4 3 3 2 3 2 1 1 2 3 5 6 6 6 6 6 4 4 6 6 6 7 7 6 7 8 7 8 9 10 10 12 12 10 10 10 8 4 2 1 3 3 9 9 11 13 13 14 17 19 20 19 17 16 18
3 2 3 2 2 3 4 4 4 4 4 3 4 5 4 2 2 3 3 2 3 6 6 3 1 2 1 1 2 3 3 3 3 3 3 3 2 1 1 2 4 4 5 6 7 6 5 2 1 2 4 5 6 7 7 7 8 8 7 6 8 9 9 11 11 10 12 13 9 7 5 5 7 9 13 13 14 19 20 20 19 20 21 20 18 17 19
2 2 2 2 3 4 5 5 5 5 4 4 4 4 3 0 1 3 5 2 3 5 6 4 2 3 4 2 4 4 4 4 4 3 2 3 3 2 2 3 4 4 4 6 7 5 2 2 2 2 3 3 3 5 6 7 8 8 9 10 10 7 7 9 11 12 13 12 9 9 11 12 13 15 18 18 18 21 22 21 20 20 20 20 18 19 19
4 3 2 2 3 4 3 3 5 5 3 2 5 5 3 1 0 4 4 3 3 5 6 3 1 2 3 3 3 4 4 4 3 3 3 3 4 3 3 4 5 5 5 5 5 2 3 5 2 2 3 3 1 1 2 3 3 4 7 10 10 9 8 10 13 13 13 9 6 8 12 13 13 14 16 15 15 18 22 23 21 19 20 20 19 19 19
4 3 3 4 5 4 3 3 5 4 1 0 3 5 4 2 1 2 3 2 2 4 4 2 3 2 1 1 3 4 4 3 3 4 5 5 5 4 4 6 5 4 3 2 1 2 4 4 3 2 3 3 1 1 1 0 0 1 4 7 8 8 11 13 15 13 10 9 8 7 6 5 9 14 16 14 13 16 20 22 21 19 19 21 21 20 20
3 4 4 6 6 5 4 4 4 3 1 1 2 3 2 0 0 1 2 2 2 2 2 2 3 2 2 2 3 3 2 2 4 5 5 4 4 4 5 6 4 3 3 1 2 4 4 3 3 3 3 3 2 1 1 2 1 1 2 3 5 5 4 8 12 12 11 12 13 10 5 7 13 17 17 15 16 17 16 17 19 20 20 20 21 20 20
4 4 5 6 6 6 6 6 4 3 4 4 4 2 2 2 1 1 2 2 2 1 1 2 3 3 3 3 3 2 2 2 4 5 5 4 4 4 5 5 3 2 3 2 2 5 4 3 3 3 2 2 3 2 0 1 2 3 2 1 3 3 1 1 5 8 11 12 13 13 12 16 21 19 17 17 16 14 12 13 18 22 22 20 20 21 21
Wind_Direction
329 329 327 331 341 344 343 344 346 346 348 351 347 334 294 265 289 150 158 172 181 203 232 214 220 235 238 244 247 250 247 248 268 266 202 215 241 241 245 252 257 267 275 274 266 258 235 231 237 242 175 96 98 101 104 90 318 266 279 329 31 180 270 275 277 293 306 283 218 147 346 310 295 281 265 261 291 321 302 303 320 305 314 322 301 256 97
328 327 325 330 341 345 343 344 347 350 355 356 342 324 309 305 301 184 163 180 195 223 238 224 226 224 233 244 243 250 254 237 247 260 237 209 226 239 239 239 243 244 248 264 266 238 201 226 229 243 313 95 115 125 99 103 266 277 24 24 357 264 238 243 267 280 265 240 211 153 120 241 253 255 243 207 316 316 303 302 307 294 305 315 305 317 88
327 325 323 330 341 344 344 343 346 349 352 355 344 309 301 304 284 235 171 185 208 235 244 247 249 235 234 241 241 248 256 240 234 254 258 240 227 241 242 235 245 245 235 248 255 246 239 226 216 242 279 120 141 131 88 121 254 8 33 29 331 299 308 296 278 272 271 303 316 254 320 302 253 253 273 227 228 274 283 294 282 276 302 314 315 9 115
326 323 320 330 342 344 343 342 344 347 348 352 344 297 287 301 274 247 185 184 211 236 249 260 267 268 270 262 248 242 241 235 224 238 263 263 238 240 243 229 237 241 229 231 238 243 258 247 223 223 216 198 154 123 127 205 86 43 22 0 314 300 303 296 287 284 294 323 313 290 279 277 282 303 310 307 285 265 282 290 281 300 317 321 18 26 100
325 322 319 329 342 344 343 342 343 345 347 348 338 283 257 282 283 279 219 188 216 223 234 247 254 264 273 283 282 260 240 231 217 210 237 262 252 244 238 232 237 234 220 225 234 235 241 242 248 271 268 270 101 114 151 205 105 72 353 296 284 286 275 267 262 264 272 271 270 271 262 267 284 299 304 309 316 309 294 278 278 303 301 301 60 14 360
323 321 319 328 342 345 343 341 342 343 344 343 332 282 256 269 277 299 11 217 243 243 231 233 241 250 251 262 290 290 269 243 232 211 207 236 253 247 232 238 248 245 225 222 226 225 230 235 237 237 262 266 186 134 160 173 114 113 256 239 223 262 263 263 261 254 246 241 253 265 266 275 280 285 296 303 298 297 291 282 287 305 302 302 92 33 11
323 321 319 325 340 346 343 340 342 342 338 330 304 272 285 291 291 324 356 323 280 278 273 270 266 259 257 254 259 275 281 267 257 243 211 212 234 240 236 236 239 242 241 240 231 221 228 234 226 220 236 253 239 190 175 149 134 170 248 223 191 243 262 270 284 285 263 235 259 273 266 271 276 274 279 280 284 290 284 286 307 339 329 354 75 76 71
325 324 319 320 335 345 342 340 342 342 340 326 256 241 276 305 316 328 336 320 296 287 286 288 284 269 269 267 252 254 263 263 263 259 239 218 217 224 236 243 239 233 234 242 240 232 244 251 228 220 242 261 268 252 223 190 170 185 241 222 167 178 289 291 295 304 298 267 265 264 254 261 269 265 257 255 267 276 268 279 337 335 10 59 72 134 178
325 328 324 319 327 339 342 340 342 346 348 332 279 270 306 325 327 317 305 295 295 293 282 269 260 255 248 252 260 261 258 258 266 268 260 252 238 222 227 241 250 242 230 235 239 228 237 256 245 216 220 237 256 255 250 248 199 183 226 229 161 159 279 292 274 276 276 256 245 240 238 262 266 263 258 242 232 256 265 89 36 319 37 113 143 226 165
321 327 328 322 321 330 340 341 342 348 354 342 309 313 335 339 333 322 303 282 279 280 277 268 257 253 245 240 248 255 254 251 253 260 264 261 256 250 236 229 243 254 239 235 241 233 222 231 234 222 223 231 241 240 244 261 240 207 231 244 195 184 264 277 264 265 266 245 227 222 238 262 261 277 289 254 212 249 287 103 110 293 288 209 268 19 98
318 322 324 321 316 323 336 340 342 350 358 355 323 310 330 344 334 321 308 283 275 270 263 259 251 245 248 252 251 254 259 260 256 253 259 264 259 254 247 235 234 253 246 235 245 248 235 225 225 232 238 237 234 228 226 236 238 235 257 262 236 215 250 280 283 282 282 266 188 206 260 263 254 27 8 360 29 12 324 318 334 354 32 53 55 74 113
314 315 320 321 316 321 333 337 341 348 354 353 322 296 318 342 332 305 295 283 281 280 267 266 275 273 258 251 255 257 257 261 265 263 271 295 296 286 277 271 262 255 246 243 253 251 237 234 242 243 241 238 234 226 219 219 217 218 250 274 266 214 206 247 273 274 279 279 222 231 257 241 103 72 31 351 350 348 291 265 254 98 77 77 91 98 104
318 317 320 322 317 320 330 333 335 341 349 351 326 297 313 334 322 289 295 292 280 279 277 276 285 288 276 254 253 265 263 260 264 271 287 308 308 309 312 297 279 267 261 275 289 269 228 218 237 243 239 240 243 239 231 231 228 219 221 237 264 264 242 233 238 247 268 274 262 255 223 155 158 152 116 26 324 299 269 249 189 98 74 58 88 106 110
314 321 324 323 317 318 326 328 328 334 344 345 324 302 305 312 309 306 307 289 276 285 290 280 287 304 306 282 251 253 267 263 255 261 277 290 289 289 295 297 294 292 282 284 300 287 233 212 224 236 239 244 249 246 242 244 247 242 230 207 204 245 276 279 246 234 247 257 259 257 233 209 200 151 113 87 310 281 281 296 57 83 93 86 76 90 90
297 306 318 322 317 315 318 323 324 328 338 342 320 301 294 291 304 311 297 287 289 290 281 260 267 303 320 312 288 256 261 262 249 244 255 269 274 274 275 281 290 291 279 265 269 268 236 222 219 223 223 228 238 237 238 244 238 235 239 231 208 207 228 270 275 256 246 251 259 265 265 265 95 103 112 124 339 25 209 200 125 103 110 106 92 92 87
296 291 300 308 313 312 311 315 320 324 333 339 322 302 295 294 311 300 285 287 282 270 279 291 290 299 307 307 311 305 282 272 262 250 241 238 245 254 263 271 278 283 281 269 250 246 234 220 226 236 223 221 236 238 237 254 249 236 236 241 244 231 200 218 263 271 265 260 249 254 266 243 118 125 138 125 76 7 252 205 154 113 103 102 107 107 107
311 293 288 292 300 308 306 306 313 319 326 333 323 306 303 323 340 317 285 272 266 267 287 301 300 295 288 281 284 282 275 270 261 258 261 253 242 238 235 242 255 266 277 281 260 238 233 222 227 236 225 219 236 231 229 248 254 259 256 239 243 251 227 208 233 250 262 267 255 255 276 120 141 185 203 96 88 275 259 246 191 148 124 108 98 98 105
318 301 286 281 288 302 302 297 303 311 318 328 319 300 298 316 337 322 286 274 273 265 270 276 276 275 287 301 302 291 291 303 293 270 267 280 275 251 231 234 241 236 241 264 256 230 231 231 227 229 230 336 237 205 208 234 233 246 266 254 234 243 244 235 237 237 237 246 253 258 267 108 137 189 139 96 98 257 266 252 152 143 133 117 103 99 108
317 310 293 280 284 301 301 288 293 304 313 325 320 300 299 309 308 301 295 281 272 271 283 296 302 291 283 285 277 267 270 285 301 295 261 244 257 256 248 269 275 239 209 235 247 235 233 233 226 230 223 172 188 219 215 223 230 227 240 248 240 237 241 238 240 244 242 242 248 245 224 79 102 89 73 71 77 245 230 136 132 131 133 132 120 111 124
312 313 304 285 282 295 300 283 283 296 308 319 315 300 297 288 261 271 284 284 293 293 281 285 306 314 308 302 287 280 279 263 248 254 259 268 352 250 232 246 290 278 230 227 234 233 239 236 224 230 231 193 179 244 230 222 231 233 235 242 235 227 240 238 228 230 236 240 249 245 203 147 239 119 79 37 315 99 113 144 155 140 141 140 132 131 144
310 312 311 294 281 285 296 282 275 289 304 310 304 298 296 284 245 248 273 285 296 288 271 297 327 325 310 301 295 289 285 280 279 277 268 288 7 301 239 223 247 274 262 239 232 226 236 243 228 223 236 217 131 207 236 234 233 228 232 248 249 230 243 251 244 247 241 231 247 274 141 135 152 118 92 79 90 103 124 159 159 148 144 129 119 135 151
312 309 310 301 284 279 286 282 269 279 295 297 290 290 290 287 288 305 298 278 267 265 281 300 308 300 284 277 275 272 271 273 280 298 310 302 314 291 268 260 230 235 288 314 265 243 244 261 254 233 227 194 149 187 214 234 246 226 209 222 247 252 240 256 304 312 296 147 110 97 182 136 105 97 108 116 124 137 160 173 157 146 135 121 122 139 146
308 305 305 302 287 275 275 278 266 268 283 287 274 275 285 299 325 331 312 278 261 265 277 282 284 280 270 260 249 244 248 256 258 259 267 276 285 285 275 269 250 239 246 358 317 291 298 313 300 263 234 174 164 206 212 214 245 261 220 209 217 230 238 254 283 288 282 113 114 138 209 139 95 94 108 122 148 161 162 163 149 120 119 127 139 144 141
302 301 299 299 290 273 267 274 266 256 270 279 260 261 283 297 309 318 308 280 264 272 276 270 263 260 265 265 250 234 234 242 245 245 245 245 255 271 267 271 272 248 230 340 321 296 294 305 302 284 266 179 170 206 228 219 216 240 245 231 227 238 238 240 249 248 231 159 131 216 238 202 142 112 114 141 161 162 149 136 126 114 115 127 139 148 147
299 298 293 293 291 273 262 270 266 249 258 273 261 257 274 285 295 306 296 275 272 293 289 276 265 263 264 275 289 258 244 238 234 231 231 229 229 243 258 285 308 308 315 322 305 280 269 280 276 265 260 214 180 193 227 256 243 183 271 268 299 278 240 227 231 235 206 131 110 290 267 199 146 131 151 169 156 142 124 119 119 115 110 116 131 148 150
295 296 289 285 285 273 262 265 264 249 249 259 257 251 258 271 283 284 274 277 280 268 266 275 278 276 276 284 289 272 252 240 235 229 229 228 225 234 250 270 294 306 309 301 287 276 270 270 258 247 244 271 295 235 161 134 184 205 229 230 149 228 250 249 247 234 169 129 138 194 250 186 156 161 172 161 146 138 126 124 132 131 128 133 143 153 148
295 296 288 276 274 270 264 262 259 249 246 249 253 252 252 261 269 260 257 277 287 254 253 266 278 295 312 317 304 291 264 244 243 236 233 233 227 229 240 250 266 283 283 275 266 262 256 244 242 244 233 191 214 230 196 176 195 214 226 215 176 214 240 245 234 234 225 180 166 175 204 210 178 184 169 146 141 144 137 141 151 144 139 149 153 148 138
296 294 283 272 268 266 262 258 251 244 245 245 248 258 257 254 253 248 245 255 263 269 289 293 288 302 311 302 286 275 261 248 242 236 234 235 231 228 233 239 244 249 256 260 256 251 246 237 233 238 233 215 221 230 221 214 213 217 219 202 193 217 242 255 255 261 280 134 153 172 200 203 54 229 179 146 141 153 154 157 157 143 143 158 155 141 134
291 286 276 270 267 264 261 254 241 235 241 241 243 267 268 254 242 235 230 232 244 263 289 291 281 283 291 286 278 277 272 257 240 234 234 233 232 230 228 230 235 239 243 248 249 247 246 242 242 243 236 230 238 245 235 231 229 226 215 204 212 237 252 269 279 293 30 107 148 176 207 189 165 190 180 152 148 162 161 156 151 143 148 159 148 135 136
285 281 273 269 265 260 259 251 231 223 227 224 225 261 266 237 219 219 219 218 226 247 278 285 280 281 290 290 283 277 274 267 253 239 233 230 230 231 226 224 227 231 239 247 249 250 247 238 239 241 233 227 232 221 197 231 239 228 174 65 301 254 227 234 261 273 100 119 160 191 201 167 141 169 173 153 154 167 159 148 148 146 149 151 142 137 143
281 277 271 266 256 250 258 252 224 214 213 205 205 240 265 182 166 187 202 205 212 235 267 276 278 286 289 277 264 259 259 257 249 237 232 230 228 226 223 222 219 215 227 241 247 252 255 244 232 237 236 243 255 231 212 227 234 207 135 73 321 245 217 231 266 268 110 104 170 231 211 155 138 181 183 159 158 165 152 143 145 145 144 146 143 143 148
274 270 266 260 242 236 250 244 215 204 202 205 218 244 286 327 117 164 177 184 196 226 258 271 272 277 281 272 260 247 242 242 238 230 226 221 220 221 218 218 220 214 218 232 239 239 244 244 239 236 221 129 255 237 230 242 238 177 163 188 209 210 218 234 258 253 193 142 171 232 218 168 161 186 180 159 161 163 150 144 147 146 145 146 147 153 156
268 267 260 249 233 226 236 236 216 205 205 221 238 250 262 271 241 171 174 184 206 232 246 268 274 265 268 295 293 256 227 233 233 221 214 204 204 214 210 209 222 217 205 217 234 232 229 233 236 230 197 145 185 234 237 247 233 165 160 185 200 195 212 222 211 226 234 193 189 226 222 168 161 179 172 161 164 161 152 152 152 150 153 155 153 157 158
267 265 250 238 234 235 236 228 215 211 219 237 250 255 253 247 221 173 174 195 230 247 241 249 270 263 259 283 285 235 208 228 227 210 210 198 195 214 213 201 213 215 199 205 223 233 229 230 234 232 212 186 204 229 233 237 224 167 153 186 199 176 188 217 189 201 238 242 228 239 225 142 156 176 174 168 168 162 159 159 157 158 167 165 155 157 159
274 255 233 228 227 220 211 201 197 203 221 239 250 255 246 234 219 194 190 202 234 257 228 224 254 263 259 267 264 202 195 233 240 219 217 195 188 216 229 201 197 207 200 197 215 229 228 223 226 232 223 204 208 221 227 234 226 182 164 184 187 162 171 201 196 208 239 248 248 258 233 175 177 180 172 170 173 168 166 166 162 166 178 172 160 162 163
251 196 184 180 168 160 164 180 194 203 215 228 240 243 214 198 198 201 210 224 248 267 261 242 245 246 245 254 257 149 175 246 244 219 217 209 195 212 228 215 207 208 199 199 220 227 225 224 230 228 218 209 215 213 204 227 229 168 160 173 171 162 183 201 201 214 230 238 275 271 241 203 188 176 170 178 178 170 171 175 170 171 182 180 165 163 168
151 149 146 141 141 148 168 194 203 210 216 216 206 165 143 152 173 199 216 228 235 239 257 274 256 250 259 269 278 38 139 249 243 218 214 217 202 196 213 223 221 212 203 212 222 221 208 230 243 234 225 220 220 205 165 128 85 118 138 154 157 169 217 226 215 209 205 202 224 246 243 223 202 183 178 185 182 175 178 182 174 173 183 180 164 163 170
146 144 145 148 155 180 210 207 204 207 209 201 178 143 140 166 196 205 206 212 211 209 221 247 252 256 270 277 278 278 261 259 260 238 219 210 195 200 225 225 217 214 220 220 213 199 190 214 233 237 233 222 209 194 159 123 82 79 127 152 169 192 218 225 216 203 196 197 204 211 215 219 221 207 195 190 184 181 183 181 174 177 184 176 164 165 168
151 152 166 188 211 226 183 180 182 177 175 184 192 181 167 191 209 203 193 200 206 206 213 229 238 244 251 258 262 258 251 256 266 263 262 271 273 242 243 229 197 201 233 228 191 167 207 219 222 232 235 223 203 193 162 133 128 112 280 223 202 197 200 206 208 204 200 194 193 200 207 210 208 206 207 200 186 183 186 179 173 181 186 170 161 165 167
177 188 204 216 219 170 125 137 150 152 154 179 213 219 185 198 213 209 190 199 211 212 211 219 227 227 232 246 256 251 242 253 263 242 265 322 355 228 241 246 207 195 232 230 188 174 219 231 222 224 233 225 194 174 168 167 170 183 228 236 218 200 191 190 191 185 159 132 132 260 251 238 223 211 209 208 195 186 186 180 174 182 181 161 154 163 168
196 209 233 313 99 139 140 145 157 167 174 196 221 220 203 204 217 228 212 212 221 222 206 209 219 214 213 230 246 247 231 250 262 145 152 256 290 254 232 257 313 259 240 231 194 196 230 237 229 227 236 235 198 177 183 193 188 184 199 214 211 198 188 183 179 163 140 141 186 232 227 227 232 226 215 213 207 192 184 177 178 186 179 160 154 165 168
213 241 302 344 31 142 154 161 179 196 200 212 229 237 231 214 209 227 230 225 235 236 203 202 216 220 208 212 224 230 220 214 220 197 186 233 273 291 263 168 246 248 241 212 137 217 231 232 240 239 222 201 206 209 205 203 196 193 199 206 214 214 198 180 179 180 167 174 200 213 208 215 230 234 217 204 201 202 193 177 176 184 178 164 163 170 166
238 272 295 303 271 172 179 203 215 200 198 201 196 219 233 221 209 217 228 230 243 241 216 198 206 216 211 204 211 218 213 186 172 264 241 202 175 147 110 134 238 255 259 153 190 220 221 226 242 246 210 179 189 203 205 205 206 206 202 197 204 214 204 178 173 189 196 206 221 225 213 211 223 236 222 187 177 202 212 188 177 182 173 162 167 173 163
243 262 266 254 223 190 202 226 207 198 215 218 210 218 226 219 209 208 217 231 236 227 214 211 217 213 200 190 202 215 209 175 156 170 184 180 190 196 189 190 228 246 252 224 228 232 233 233 237 233 195 188 188 187 192 197 199 202 198 190 193 201 194 176 176 190 206 221 228 228 222 213 211 227 229 194 171 198 210 189 180 183 169 160 167 171 161
230 218 214 226 233 212 210 208 208 218 225 226 225 228 231 232 232 230 236 266 276 245 213 214 235 233 211 191 203 214 205 189 189 185 168 191 225 217 203 217 256 242 228 232 237 238 240 239 224 172 172 193 188 175 180 185 184 187 193 194 197 199 192 185 188 195 208 220 219 216 220 203 144 203 222 203 169 187 209 191 180 176 164 159 167 167 159
233 210 210 227 244 231 216 210 211 216 224 233 237 240 246 257 265 271 284 307 303 285 256 222 226 238 239 237 238 221 204 202 205 192 172 193 226 231 237 285 253 243 239 239 240 240 242 245 229 174 177 191 185 173 178 191 198 200 201 206 212 210 202 197 198 199 207 215 205 175 161 97 102 194 238 218 174 176 202 206 189 172 160 161 169 164 156
254 241 233 238 243 228 219 222 227 226 230 242 245 245 254 279 303 289 284 301 326 313 302 285 170 140 105 331 286 249 219 217 218 197 183 202 216 220 255 245 235 239 245 246 245 243 243 266 332 129 162 180 187 186 191 207 212 203 197 211 225 224 216 209 202 198 207 211 191 156 172 200 189 203 230 224 188 182 195 201 187 168 160 163 165 157 151
275 257 239 232 235 228 222 228 240 240 243 265 276 265 252 71 23 296 290 327 349 299 275 253 191 152 152 187 245 247 224 216 218 208 208 220 206 180 201 235 235 231 232 242 251 250 204 91 41 47 93 126 185 201 206 218 217 206 205 214 216 211 218 223 216 206 207 207 186 172 189 200 196 201 209 202 183 179 186 185 174 164 162 162 157 151 151
270 268 246 235 252 260 252 252 259 254 251 304 309 285 249 172 347 290 289 311 300 268 254 237 226 211 179 180 229 243 228 215 210 197 198 217 214 203 216 237 238 230 223 233 252 255 120 116 112 87 95 102 134 237 228 230 233 235 236 230 212 188 192 220 231 222 206 190 173 186 192 186 184 203 212 199 175 170 172 170 166 164 161 156 152 152 157
252 254 247 246 259 274 281 270 267 260 214 133 281 265 239 189 192 269 261 247 258 264 254 221 211 218 194 190 237 239 229 222 222 217 216 220 222 225 236 245 251 256 247 224 164 114 121 127 129 138 142 137 125 349 324 285 209 260 261 255 241 212 195 203 218 219 199 173 177 201 210 185 184 201 209 199 174 161 160 161 161 160 156 153 155 160 163
242 242 247 250 254 262 271 275 280 294 317 289 268 268 264 208 195 245 271 291 301 299 281 246 222 205 188 205 230 239 231 219 225 233 235 233 228 233 242 249 261 286 298 313 97 113 131 145 150 162 168 151 129 107 334 331 310 258 228 248 265 259 214 206 215 210 188 173 173 176 195 234 222 207 195 181 164 153 150 156 157 154 152 156 161 163 163
241 241 253 256 251 251 262 270 283 318 324 303 293 312 335 317 307 335 340 328 322 324 299 280 258 226 205 211 237 257 252 235 234 238 239 235 232 242 256 266 282 312 311 317 91 107 119 137 139 146 159 145 129 125 77 334 309 304 321 293 250 228 161 272 238 202 178 170 164 160 183 219 219 198 176 170 166 157 155 162 159 155 156 162 165 162 159